Location: Home
(42.5358°N, 72.7383°W)
Time: 07:27:17
(UTC-05:00)

Envisat - Pass Details

Date: 25 October 2021
Orbit: 764 x 766 km, 98.2° (Epoch: 07 December)

Event Time Altitude Azimuth Distance (km) Brightness Sun altitude
Rises 06:21:21 0° 9° (N) 3,242 6.3 -10.7°
Reaches altitude 10° 06:23:41 10° 6° (N) 2,311 5.5 -10.3°
Maximum altitude 06:28:41 59° 288° (WNW) 881 3.0 -9.4°
Drops below altitude 10° 06:33:39 10° 209° (SSW) 2,294 5.3 -8.5°
Sets 06:35:58 0° 206° (SSW) 3,216 6.1 -8.1°
